QPF
0.00 0.00 0.00 0.00 0.00 0.00 0.00 0.00 0.00 0.00 0.00 0.00 0.00 0.00 0.00 0.00 0.00 0.00 0.00 0.00 0.00 0.00 0.00 0.00 0.00 0.00 0.00 0.00 0.00 0.00 0.00 0.00 0.00 0.00 0.00 0.00 0.00 0.01 0.02 0.04 0.05 0.09 0.15 0.10
0.00 0.00 0.00 0.00 0.00 0.00 0.00 0.00 0.00 0.00 0.00 0.00 0.00 0.00 0.00 0.00 0.00 0.00 0.00 0.00 0.00 0.00 0.00 0.00 0.00 0.00 0.00 0.00 0.00 0.00 0.00 0.00 0.00 0.00 0.00 0.00 0.00 0.00 0.00 0.00 0.03 0.06 0.09 0.13
0.00 0.00 0.00 0.00 0.00 0.00 0.00 0.00 0.00 0.00 0.00 0.00 0.00 0.00 0.00 0.00 0.00 0.00 0.00 0.00 0.00 0.00 0.00 0.00 0.00 0.00 0.00 0.00 0.00 0.00 0.00 0.00 0.00 0.00 0.00 0.00 0.00 0.00 0.00 0.00 0.00 0.02 0.05 0.08
0.00 0.00 0.00 0.00 0.00 0.00 0.00 0.00 0.00 0.00 0.00 0.00 0.00 0.00 0.00 0.00 0.00 0.00 0.00 0.00 0.00 0.00 0.00 0.00 0.00 0.00 0.00 0.00 0.00 0.00 0.00 0.00 0.00 0.00 0.00 0.00 0.00 0.00 0.00 0.00 0.00 0.00 0.01 0.05
0.00 0.00 0.00 0.00 0.00 0.00 0.00 0.00 0.00 0.00 0.00 0.00 0.00 0.00 0.00 0.00 0.00 0.00 0.00 0.00 0.00 0.00 0.00 0.00 0.00 0.00 0.00 0.00 0.00 0.00 0.00 0.00 0.00 0.00 0.00 0.00 0.00 0.00 0.00 0.00 0.00 0.00 0.00 0.01
0.00 0.00 0.00 0.00 0.00 0.00 0.00 0.00 0.00 0.00 0.00 0.00 0.00 0.00 0.00 0.00 0.00 0.00 0.00 0.00 0.00 0.00 0.00 0.00 0.00 0.00 0.00 0.00 0.00 0.00 0.00 0.00 0.00 0.00 0.00 0.00 0.00 0.00 0.00 0.00 0.01 0.00 0.00 0.00
0.00 0.00 0.00 0.00 0.00 0.00 0.00 0.00 0.00 0.00 0.00 0.00 0.00 0.00 0.00 0.00 0.00 0.00 0.00 0.00 0.00 0.00 0.00 0.00 0.00 0.00 0.00 0.00 0.00 0.00 0.00 0.00 0.00 0.00 0.00 0.00 0.00 0.00 0.00 0.00 0.00 0.00 0.00 0.00
0.00 0.00 0.00 0.00 0.00 0.00 0.00 0.00 0.00 0.00 0.00 0.00 0.00 0.00 0.00 0.00 0.00 0.00 0.00 0.00 0.00 0.00 0.00 0.00 0.00 0.00 0.00 0.00 0.00 0.00 0.00 0.00 0.00 0.00 0.00 0.00 0.00 0.00 0.01 0.01 0.00 0.00 0.00 0.00
0.00 0.00 0.00 0.00 0.00 0.00 0.00 0.00 0.00 0.00 0.00 0.00 0.00 0.00 0.00 0.00 0.00 0.00 0.00 0.00 0.01 0.01 0.01 0.00 0.00 0.00 0.00 0.00 0.00 0.00 0.00 0.00 0.00 0.00 0.00 0.00 0.00 0.00 0.01 0.02 0.00 0.00 0.00 0.00
0.00 0.00 0.00 0.00 0.00 0.00 0.00 0.00 0.00 0.00 0.00 0.00 0.00 0.00 0.00 0.00 0.01 0.01 0.00 0.00 0.00 0.00 0.00 0.01 0.00 0.00 0.00 0.00 0.00 0.00 0.00 0.00 0.00 0.00 0.00 0.00 0.00 0.00 0.00 0.00 0.00 0.00 0.00 0.00
0.00 0.00 0.00 0.00 0.00 0.00 0.00 0.00 0.00 0.00 0.00 0.01 0.01 0.00 0.00 0.01 0.02 0.01 0.00 0.00 0.00 0.00 0.00 0.01 0.01 0.01 0.02 0.02 0.00 0.00 0.00 0.00 0.00 0.00 0.00 0.00 0.00 0.00 0.01 0.00 0.00 0.00 0.00 0.00
0.00 0.00 0.00 0.00 0.00 0.00 0.00 0.00 0.00 0.00 0.00 0.00 0.01 0.00 0.00 0.01 0.02 0.00 0.00 0.00 0.00 0.00 0.00 0.00 0.00 0.01 0.01 0.01 0.00 0.00 0.00 0.00 0.00 0.00 0.00 0.00 0.00 0.00 0.03 0.01 0.00 0.00 0.00 0.00
0.00 0.00 0.00 0.00 0.00 0.00 0.00 0.00 0.00 0.00 0.00 0.00 0.01 0.00 0.00 0.00 0.00 0.00 0.00 0.00 0.00 0.00 0.00 0.00 0.00 0.00 0.00 0.00 0.00 0.00 0.00 0.00 0.00 0.00 0.00 0.00 0.00 0.00 0.02 0.02 0.01 0.00 0.00 0.00
0.00 0.00 0.00 0.00 0.00 0.00 0.00 0.00 0.00 0.03 0.01 0.00 0.00 0.00 0.00 0.00 0.00 0.00 0.00 0.00 0.00 0.00 0.00 0.00 0.00 0.00 0.00 0.00 0.00 0.00 0.00 0.00 0.00 0.00 0.00 0.01 0.01 0.01 0.01 0.02 0.01 0.00 0.00 0.01
0.00 0.00 0.00 0.00 0.00 0.00 0.00 0.00 0.00 0.00 0.00 0.01 0.00 0.00 0.00 0.00 0.00 0.00 0.00 0.00 0.00 0.00 0.00 0.00 0.00 0.00 0.00 0.00 0.00 0.00 0.00 0.00 0.00 0.00 0.00 0.01 0.01 0.01 0.00 0.00 0.01 0.00 0.00 0.01
0.00 0.00 0.00 0.00 0.00 0.00 0.00 0.00 0.00 0.00 0.01 0.00 0.00 0.00 0.01 0.00 0.00 0.00 0.00 0.00 0.00 0.00 0.00 0.00 0.00 0.00 0.00 0.00 0.00 0.00 0.00 0.00 0.00 0.00 0.00 0.00 0.00 0.00 0.00 0.00 0.00 0.00 0.00 0.01
0.00 0.00 0.00 0.00 0.00 0.00 0.00 0.00 0.00 0.00 0.03 0.03 0.00 0.00 0.00 0.00 0.00 0.00 0.00 0.00 0.00 0.00 0.00 0.00 0.00 0.00 0.00 0.00 0.00 0.00 0.00 0.00 0.00 0.00 0.00 0.00 0.02 0.00 0.00 0.00 0.00 0.00 0.01 0.00
0.00 0.00 0.00 0.00 0.00 0.00 0.00 0.00 0.00 0.00 0.00 0.01 0.00 0.00 0.00 0.00 0.00 0.00 0.00 0.00 0.00 0.00 0.00 0.00 0.00 0.00 0.00 0.00 0.00 0.00 0.00 0.00 0.00 0.00 0.00 0.01 0.01 0.00 0.01 0.00 0.00 0.00 0.00 0.01
0.00 0.00 0.00 0.00 0.00 0.00 0.00 0.01 0.01 0.00 0.00 0.00 0.00 0.00 0.00 0.00 0.00 0.00 0.00 0.00 0.00 0.00 0.00 0.00 0.00 0.00 0.00 0.00 0.00 0.00 0.00 0.00 0.00 0.00 0.00 0.00 0.00 0.03 0.04 0.01 0.01 0.00 0.00 0.00
0.00 0.00 0.00 0.00 0.00 0.00 0.01 0.01 0.01 0.00 0.00 0.00 0.00 0.00 0.00 0.00 0.00 0.00 0.00 0.00 0.00 0.00 0.00 0.00 0.00 0.00 0.00 0.00 0.00 0.00 0.00 0.00 0.00 0.00 0.00 0.00 0.01 0.08 0.03 0.01 0.00 0.00 0.00 0.00
0.00 0.00 0.00 0.00 0.01 0.00 0.00 0.00 0.00 0.00 0.00 0.00 0.00 0.00 0.00 0.00 0.00 0.00 0.00 0.00 0.00 0.00 0.00 0.00 0.00 0.00 0.00 0.00 0.00 0.00 0.00 0.00 0.00 0.00 0.00 0.00 0.05 0.01 0.00 0.00 0.01 0.00 0.00 0.00
0.00 0.00 0.00 0.00 0.00 0.00 0.00 0.00 0.01 0.01 0.00 0.00 0.00 0.00 0.00 0.00 0.00 0.00 0.00 0.00 0.00 0.00 0.00 0.00 0.00 0.00 0.00 0.00 0.00 0.00 0.00 0.00 0.00 0.00 0.00 0.01 0.01 0.00 0.00 0.00 0.00 0.00 0.00 0.00
0.00 0.00 0.00 0.00 0.00 0.00 0.00 0.00 0.00 0.00 0.00 0.00 0.00 0.00 0.00 0.00 0.00 0.00 0.00 0.00 0.00 0.00 0.00 0.00 0.00 0.00 0.00 0.00 0.00 0.00 0.00 0.00 0.00 0.00 0.00 0.00 0.00 0.00 0.00 0.00 0.00 0.00 0.00 0.00
0.00 0.00 0.00 0.00 0.00 0.00 0.00 0.00 0.00 0.00 0.00 0.00 0.00 0.00 0.00 0.00 0.00 0.00 0.00 0.00 0.00 0.00 0.00 0.00 0.00 0.00 0.00 0.00 0.00 0.00 0.00 0.00 0.00 0.00 0.00 0.00 0.00 0.00 0.00 0.00 0.00 0.00 0.00 0.00
0.00 0.00 0.00 0.00 0.00 0.00 0.00 0.00 0.00 0.00 0.00 0.00 0.00 0.00 0.00 0.00 0.00 0.00 0.00 0.00 0.00 0.00 0.00 0.00 0.00 0.00 0.00 0.00 0.00 0.01 0.00 0.00 0.00 0.00 0.00 0.00 0.00 0.00 0.00 0.00 0.00 0.00 0.00 0.00
0.00 0.00 0.00 0.00 0.00 0.00 0.00 0.00 0.00 0.00 0.00 0.00 0.00 0.00 0.00 0.00 0.00 0.00 0.00 0.00 0.00 0.00 0.00 0.00 0.00 0.00 0.00 0.00 0.00 0.00 0.00 0.00 0.00 0.00 0.01 0.01 0.00 0.00 0.00 0.00 0.00 0.00 0.00 0.00
MSLP
1013.22 1014.17 1014.58 1014.67 1014.82 1014.84 1015.00 1015.09 1014.69 1013.67 1012.92 1012.75 1012.16 1011.70 1011.47 1010.44 1009.92 1009.34 1008.85 1008.49 1007.62 1006.67 1005.53 1004.91 1004.17 1003.34 1003.31 1003.28 1003.72 1003.64 1003.77 1003.68 1004.32 1005.15 1005.67 1005.91 1005.85 1005.93 1006.20 1006.32 1006.30 1006.40 1006.56 1006.90
1013.84 1014.12 1013.84 1013.85 1013.95 1014.27 1014.43 1014.52 1014.14 1013.57 1013.22 1013.20 1012.36 1011.65 1010.84 1010.44 1009.75 1009.31 1009.28 1008.63 1007.90 1007.03 1006.09 1004.88 1004.08 1003.17 1002.84 1002.36 1002.72 1002.94 1003.11 1003.52 1003.75 1004.13 1004.46 1004.77 1005.29 1005.56 1005.70 1005.83 1006.11 1006.09 1006.19 1006.29
1013.73 1013.50 1013.25 1013.41 1013.55 1013.70 1013.91 1014.12 1014.10 1014.11 1013.44 1013.10 1012.67 1011.60 1011.03 1010.23 1009.86 1009.60 1009.28 1008.85 1008.05 1007.47 1006.58 1005.24 1003.93 1003.05 1002.44 1002.46 1002.19 1002.46 1002.56 1002.81 1003.21 1003.57 1004.16 1004.84 1005.17 1005.45 1005.88 1005.98 1005.89 1005.73 1005.76 1006.00
1013.52 1012.88 1013.04 1013.11 1013.38 1013.39 1013.58 1013.63 1013.90 1014.22 1014.37 1014.00 1013.69 1012.61 1011.61 1010.85 1010.35 1010.22 1009.83 1009.40 1008.60 1007.30 1006.38 1005.42 1004.14 1002.99 1002.85 1001.63 1001.40 1001.94 1002.06 1002.26 1002.73 1003.27 1003.96 1004.53 1004.96 1005.50 1005.54 1005.71 1005.71 1005.66 1005.75 1005.66
1013.13 1012.91 1012.86 1012.89 1012.92 1013.18 1013.54 1013.65 1014.13 1014.28 1014.59 1014.72 1014.32 1014.27 1012.12 1011.40 1011.23 1011.01 1010.70 1010.18 1009.22 1008.07 1006.94 1006.10 1004.74 1003.79 1003.01 1001.99 1001.73 1002.12 1002.29 1002.32 1002.61 1002.97 1003.60 1004.27 1004.85 1005.04 1005.42 1005.46 1005.61 1005.64 1005.59 1005.61
1013.08 1012.54 1012.51 1012.60 1012.87 1013.26 1013.71 1014.19 1014.40 1015.23 1015.67 1015.76 1015.04 1014.90 1012.67 1012.05 1011.87 1011.49 1011.13 1010.59 1009.86 1008.70 1007.47 1006.42 1005.39 1004.72 1004.59 1003.00 1002.30 1002.16 1002.17 1003.01 1003.45 1003.74 1004.34 1004.64 1004.98 1005.57 1005.41 1005.45 1005.63 1005.56 1005.46 1005.19
1013.62 1012.92 1012.77 1012.82 1013.28 1013.65 1014.21 1015.38 1016.45 1017.00 1017.15 1016.70 1015.61 1015.04 1013.00 1011.91 1011.70 1011.63 1011.47 1010.88 1010.23 1009.39 1008.16 1007.48 1006.71 1006.73 1006.07 1004.48 1003.78 1003.00 1003.00 1003.34 1003.35 1003.68 1004.10 1004.44 1004.77 1004.84 1005.06 1005.15 1005.30 1005.22 1004.99 1004.82
1014.67 1013.91 1013.50 1013.54 1013.75 1014.30 1015.00 1016.21 1018.07 1018.63 1018.24 1016.73 1016.05 1014.45 1012.52 1011.65 1011.48 1011.50 1011.37 1010.88 1010.02 1009.27 1008.78 1008.65 1008.24 1007.79 1007.40 1006.33 1005.26 1004.78 1004.39 1004.31 1004.07 1004.09 1004.19 1004.08 1003.88 1004.15 1004.47 1004.59 1004.57 1004.61 1004.47 1004.26
1015.22 1014.64 1013.81 1013.61 1013.67 1014.32 1015.34 1016.47 1017.35 1018.64 1018.48 1017.76 1015.56 1013.95 1012.53 1011.87 1011.77 1011.62 1011.46 1010.89 1010.22 1009.42 1009.56 1009.50 1008.87 1008.47 1007.94 1007.51 1006.82 1006.24 1005.63 1005.18 1004.78 1004.74 1004.49 1004.26 1004.11 1004.06 1004.09 1004.14 1004.00 1003.98 1003.91 1003.89
1015.49 1015.20 1014.34 1013.99 1014.01 1014.46 1015.09 1016.14 1017.65 1019.20 1019.47 1018.25 1016.11 1014.51 1012.81 1012.09 1011.93 1011.55 1011.07 1010.99 1010.72 1010.24 1009.88 1010.04 1009.16 1008.64 1008.59 1008.19 1007.48 1006.76 1006.34 1006.19 1005.91 1005.26 1004.90 1004.51 1004.17 1003.90 1003.81 1003.92 1003.97 1004.01 1003.95 1003.78
1015.69 1016.24 1015.37 1015.02 1015.02 1014.86 1015.51 1016.37 1017.79 1019.08 1019.26 1018.47 1017.05 1014.10 1012.80 1012.23 1011.91 1011.58 1011.14 1010.85 1010.59 1010.23 1010.39 1009.90 1009.72 1008.91 1008.90 1008.44 1008.02 1007.21 1006.80 1006.47 1006.30 1006.01 1005.54 1004.98 1004.50 1004.08 1003.67 1003.87 1004.07 1004.01 1004.29 1004.26
1016.31 1016.78 1016.31 1015.52 1014.81 1014.48 1015.21 1015.97 1017.24 1018.60 1018.64 1018.00 1017.22 1013.29 1012.33 1012.06 1011.78 1011.55 1011.11 1010.60 1010.29 1009.82 1009.64 1009.37 1009.11 1008.59 1008.33 1008.33 1008.14 1007.65 1007.39 1007.04 1006.65 1006.48 1006.21 1005.57 1004.96 1004.45 1003.99 1004.05 1004.32 1004.59 1004.88 1004.89
1017.03 1017.62 1017.26 1015.66 1015.54 1015.17 1015.47 1015.97 1016.44 1017.17 1017.67 1016.72 1016.62 1013.29 1012.25 1011.93 1011.74 1011.79 1011.58 1011.04 1010.45 1009.97 1009.73 1009.17 1008.75 1008.19 1008.07 1008.24 1008.24 1007.98 1007.61 1007.39 1006.94 1006.54 1006.27 1006.10 1005.61 1005.26 1005.07 1004.91 1004.80 1005.03 1005.27 1005.50
1017.33 1018.33 1018.30 1017.66 1016.55 1016.36 1016.09 1016.06 1016.07 1016.58 1016.85 1015.34 1014.49 1012.48 1012.45 1012.55 1012.60 1012.30 1011.82 1011.34 1010.93 1010.38 1010.08 1009.62 1009.11 1008.95 1008.56 1008.36 1008.01 1007.88 1007.69 1007.41 1006.97 1006.51 1006.34 1006.23 1006.17 1005.82 1005.74 1005.67 1005.63 1005.60 1005.70 1005.93
1018.12 1018.62 1018.42 1017.60 1016.56 1015.97 1015.32 1014.87 1014.90 1015.04 1014.31 1014.65 1012.51 1013.05 1012.06 1011.94 1011.88 1012.34 1011.95 1011.64 1011.13 1010.42 1009.82 1009.84 1009.86 1009.74 1009.10 1008.62 1008.35 1008.25 1007.94 1007.42 1006.89 1006.68 1006.64 1006.71 1006.67 1006.40 1006.21 1006.28 1006.44 1006.33 1006.42 1006.84
1018.78 1018.57 1018.13 1017.35 1016.24 1015.54 1014.85 1013.82 1013.45 1013.49 1013.22 1013.02 1012.59 1011.99 1011.79 1011.54 1011.77 1012.14 1012.12 1011.77 1011.40 1010.96 1010.54 1010.01 1009.78 1009.71 1009.36 1008.89 1008.75 1008.76 1008.41 1007.80 1007.37 1007.15 1007.08 1007.09 1007.30 1007.11 1007.11 1007.08 1007.26 1007.52 1007.68 1007.89
1019.29 1019.28 1019.09 1017.78 1016.99 1016.17 1014.89 1012.83 1012.32 1012.10 1011.93 1012.01 1012.19 1011.74 1011.70 1011.89 1012.11 1012.18 1011.83 1011.56 1011.34 1010.89 1010.70 1010.60 1010.16 1010.09 1009.85 1009.61 1009.28 1009.16 1008.66 1008.21 1007.83 1007.56 1007.19 1007.27 1007.87 1007.89 1008.05 1007.97 1008.12 1008.57 1008.88 1009.07
1019.14 1019.62 1019.44 1018.32 1017.37 1015.82 1013.26 1012.53 1012.19 1012.22 1012.01 1012.04 1011.96 1011.82 1012.11 1012.25 1012.15 1011.92 1011.71 1011.32 1010.80 1010.39 1010.14 1010.19 1010.42 1010.31 1010.12 1009.98 1009.87 1009.50 1009.14 1008.43 1007.97 1007.95 1007.60 1007.77 1008.22 1008.53 1008.84 1008.78 1008.98 1009.61 1009.88 1010.16
1018.58 1019.14 1019.40 1018.94 1017.72 1015.14 1013.31 1012.98 1012.73 1012.89 1012.34 1011.73 1011.82 1012.07 1012.07 1012.22 1012.13 1011.26 1010.94 1010.68 1010.45 1010.22 1010.14 1010.06 1009.88 1009.71 1009.66 1009.66 1009.54 1009.50 1009.05 1008.52 1008.15 1008.31 1008.18 1008.17 1008.49 1008.97 1009.37 1009.61 1009.99 1010.47 1010.89 1011.36
1018.57 1018.80 1019.31 1018.71 1017.49 1015.38 1013.36 1013.08 1012.36 1012.18 1012.51 1012.31 1012.60 1012.73 1012.14 1012.08 1011.47 1010.28 1010.45 1010.40 1010.00 1009.71 1009.41 1009.14 1009.03 1008.93 1008.84 1008.97 1009.07 1009.00 1008.75 1008.62 1008.49 1008.33 1008.51 1008.62 1008.94 1009.44 1009.99 1010.45 1010.95 1011.61 1012.07 1012.61
1018.95 1018.96 1019.03 1018.19 1016.99 1014.81 1013.20 1013.05 1012.25 1012.84 1013.45 1012.61 1012.43 1012.30 1012.10 1011.81 1011.48 1009.77 1009.86 1009.53 1009.30 1008.96 1008.65 1008.34 1008.17 1008.05 1008.09 1008.37 1008.67 1008.88 1008.83 1008.51 1008.63 1008.72 1008.88 1009.08 1009.44 1009.99 1010.63 1011.30 1012.06 1012.59 1013.06 1013.65
1019.52 1019.27 1018.75 1017.97 1016.82 1014.78 1013.04 1012.90 1013.58 1013.28 1012.69 1012.31 1012.11 1011.98 1011.47 1011.07 1010.31 1009.88 1009.37 1008.98 1008.61 1008.05 1007.53 1007.21 1006.99 1006.85 1007.04 1007.42 1007.81 1008.27 1008.27 1008.50 1008.87 1009.08 1009.34 1009.86 1010.36 1010.82 1011.63 1012.25 1013.31 1013.92 1014.22 1014.74
1019.32 1018.53 1018.60 1017.99 1015.46 1013.51 1013.20 1013.40 1012.81 1012.62 1012.45 1012.29 1011.94 1011.57 1011.33 1010.60 1009.97 1009.34 1008.66 1008.08 1007.47 1006.94 1006.47 1006.17 1006.00 1005.92 1006.11 1006.53 1007.03 1007.46 1007.93 1008.63 1009.20 1009.52 1010.17 1010.77 1011.34 1012.13 1012.79 1013.43 1014.08 1014.70 1015.57 1015.80
1018.61 1018.01 1017.70 1017.18 1014.49 1013.97 1013.40 1012.77 1012.46 1012.44 1012.31 1011.77 1011.61 1011.34 1010.89 1010.13 1009.40 1008.65 1007.88 1007.07 1006.58 1005.87 1005.20 1004.88 1004.83 1004.86 1005.20 1005.77 1006.39 1007.05 1007.82 1008.67 1009.45 1010.21 1010.96 1011.72 1012.21 1013.18 1013.91 1014.60 1015.20 1015.65 1016.41 1016.99
1018.34 1017.78 1016.68 1015.77 1014.55 1013.94 1013.21 1012.82 1012.60 1012.00 1011.81 1011.58 1011.25 1010.87 1010.10 1009.47 1008.62 1008.17 1007.12 1006.56 1005.65 1004.64 1003.60 1002.73 1002.89 1003.65 1004.45 1005.35 1006.32 1006.97 1007.83 1008.82 1009.78 1010.78 1011.69 1012.57 1013.37 1014.00 1014.80 1015.86 1016.43 1016.72 1017.56 1017.82
1017.04 1016.38 1016.17 1015.10 1014.67 1013.98 1013.13 1012.78 1012.19 1011.86 1011.45 1011.24 1010.64 1009.76 1009.42 1008.90 1008.28 1007.53 1006.87 1005.94 1004.83 1003.48 1002.44 1000.61 1001.35 1003.09 1004.34 1005.41 1006.35 1007.29 1008.24 1009.03 1010.08 1011.44 1012.40 1013.23 1014.07 1014.93 1015.71 1016.41 1017.56 1018.01 1018.26 1018.11
Thickness
5681 5663 5653 5659 5656 5655 5651 5639 5638 5648 5660 5653 5652 5652 5651 5660 5658 5656 5657 5656 5658 5662 5673 5677 5680 5686 5689 5694 5693 5700 5702 5707 5702 5704 5707 5711 5718 5723 5726 5731 5735 5738 5739 5739
5662 5653 5667 5668 5663 5654 5647 5638 5637 5644 5649 5645 5644 5648 5659 5651 5651 5653 5650 5651 5649 5650 5656 5662 5668 5676 5680 5689 5691 5694 5695 5696 5696 5700 5706 5707 5708 5712 5716 5721 5725 5729 5732 5735
5657 5665 5670 5665 5654 5648 5644 5631 5630 5625 5638 5641 5633 5636 5649 5656 5648 5644 5644 5644 5646 5644 5649 5658 5667 5670 5675 5674 5681 5683 5688 5690 5690 5692 5696 5695 5696 5699 5699 5703 5710 5718 5723 5724
5660 5670 5663 5653 5646 5645 5630 5642 5633 5624 5614 5610 5629 5603 5633 5640 5636 5632 5631 5631 5633 5643 5649 5656 5663 5670 5667 5676 5681 5680 5683 5684 5686 5685 5687 5686 5683 5681 5685 5688 5695 5703 5709 5714
5656 5660 5650 5644 5647 5645 5629 5637 5625 5622 5609 5602 5605 5592 5605 5622 5619 5616 5615 5618 5622 5632 5641 5646 5656 5663 5666 5672 5674 5673 5676 5678 5679 5679 5678 5676 5674 5674 5674 5678 5681 5687 5695 5702
5656 5666 5657 5648 5646 5638 5633 5620 5615 5595 5586 5575 5593 5586 5596 5603 5603 5605 5605 5605 5609 5617 5628 5639 5648 5654 5652 5662 5669 5671 5673 5668 5668 5667 5664 5663 5661 5657 5663 5669 5669 5674 5682 5692
5641 5648 5649 5645 5625 5622 5612 5588 5553 5564 5563 5564 5584 5574 5588 5600 5600 5596 5591 5592 5597 5603 5614 5620 5628 5628 5635 5646 5652 5661 5663 5662 5665 5663 5661 5658 5656 5657 5658 5659 5662 5666 5673 5681
5599 5603 5630 5629 5617 5605 5598 5580 5543 5549 5547 5570 5575 5562 5579 5595 5593 5588 5585 5587 5594 5600 5603 5604 5611 5614 5617 5627 5637 5641 5645 5647 5650 5652 5653 5655 5659 5657 5654 5657 5661 5661 5666 5673
5594 5597 5623 5618 5613 5603 5587 5570 5569 5547 5547 5529 5564 5572 5582 5584 5577 5576 5575 5579 5584 5593 5589 5591 5600 5603 5606 5612 5620 5626 5633 5637 5640 5642 5644 5648 5651 5652 5652 5654 5657 5658 5663 5668
5600 5575 5606 5611 5608 5598 5582 5572 5541 5507 5515 5525 5544 5555 5561 5568 5563 5565 5570 5568 5568 5574 5575 5576 5590 5599 5597 5601 5609 5617 5621 5624 5628 5634 5636 5640 5643 5646 5649 5648 5648 5651 5654 5661
5599 5575 5590 5593 5583 5574 5566 5554 5540 5521 5509 5497 5519 5549 5555 5554 5554 5557 5562 5563 5563 5565 5564 5562 5574 5586 5586 5593 5598 5607 5612 5616 5619 5621 5625 5630 5634 5639 5644 5643 5642 5645 5646 5650
5585 5564 5561 5578 5586 5583 5563 5553 5534 5506 5508 5505 5508 5536 5558 5547 5548 5546 5552 5557 5559 5561 5563 5561 5566 5580 5585 5586 5590 5596 5601 5606 5611 5612 5614 5618 5623 5628 5634 5635 5635 5635 5634 5636
5574 5541 5545 5563 5560 5563 5554 5542 5533 5516 5493 5518 5504 5532 5546 5542 5541 5535 5532 5539 5550 5554 5555 5563 5565 5572 5577 5579 5583 5588 5593 5597 5602 5607 5608 5609 5613 5616 5618 5622 5625 5625 5625 5625
5564 5525 5538 5533 5545 5535 5532 5533 5527 5506 5498 5522 5521 5536 5537 5530 5521 5522 5525 5531 5536 5540 5544 5550 5558 5560 5567 5574 5580 5583 5587 5590 5595 5600 5601 5603 5603 5606 5605 5607 5611 5614 5617 5618
5547 5527 5529 5537 5541 5536 5535 5536 5529 5516 5522 5506 5536 5522 5532 5534 5530 5520 5523 5525 5529 5537 5544 5543 5544 5547 5555 5565 5571 5573 5577 5583 5588 5591 5593 5594 5594 5595 5598 5597 5598 5604 5607 5606
5531 5515 5527 5528 5535 5530 5528 5533 5532 5528 5525 5520 5523 5528 5528 5529 5526 5519 5517 5517 5520 5526 5529 5537 5541 5542 5548 5555 5558 5558 5563 5572 5576 5578 5584 5587 5584 5585 5586 5588 5588 5589 5591 5592
5499 5481 5488 5508 5510 5508 5510 5526 5529 5529 5528 5525 5516 5525 5521 5517 5514 5510 5515 5514 5513 5515 5518 5520 5526 5527 5531 5536 5543 5545 5552 5558 5564 5568 5577 5580 5573 5574 5574 5576 5576 5575 5576 5578
5478 5477 5491 5505 5493 5478 5522 5529 5526 5519 5522 5519 5519 5516 5509 5503 5503 5501 5499 5501 5506 5509 5513 5513 5512 5515 5520 5523 5526 5533 5539 5548 5555 5559 5568 5568 5567 5565 5564 5566 5566 5563 5564 5565
5500 5494 5491 5483 5476 5510 5520 5516 5513 5504 5507 5516 5511 5507 5503 5497 5489 5504 5500 5496 5495 5498 5500 5501 5504 5509 5513 5517 5519 5523 5532 5540 5546 5550 5557 5561 5560 5558 5557 5557 5555 5552 5551 5549
5499 5486 5463 5471 5488 5484 5511 5509 5513 5511 5498 5503 5498 5491 5494 5486 5485 5504 5498 5495 5494 5495 5498 5501 5504 5509 5513 5512 5512 5518 5526 5532 5538 5548 5551 5554 5553 5552 5550 5547 5545 5541 5538 5536
5477 5473 5475 5478 5487 5489 5509 5504 5510 5472 5481 5492 5493 5487 5483 5479 5479 5495 5490 5490 5489 5491 5493 5497 5501 5504 5507 5507 5507 5509 5518 5528 5537 5543 5546 5547 5548 5547 5543 5539 5533 5530 5528 5528
5467 5456 5453 5466 5463 5476 5503 5502 5486 5488 5488 5487 5483 5480 5479 5478 5482 5482 5484 5482 5482 5486 5492 5497 5501 5504 5506 5505 5507 5510 5517 5525 5531 5537 5539 5539 5540 5539 5533 5528 5522 5518 5520 5521
5458 5477 5465 5466 5474 5495 5500 5487 5491 5482 5479 5475 5475 5475 5468 5474 5476 5478 5479 5480 5484 5489 5494 5497 5500 5504 5505 5507 5507 5512 5518 5522 5526 5530 5530 5531 5531 5526 5523 5519 5514 5512 5515 5514
5475 5478 5472 5474 5496 5488 5492 5494 5487 5479 5474 5474 5467 5467 5468 5470 5474 5476 5479 5485 5486 5490 5494 5495 5497 5503 5504 5507 5508 5511 5517 5519 5520 5522 5522 5521 5522 5519 5513 5509 5509 5511 5512 5511
5472 5469 5469 5478 5487 5487 5492 5483 5476 5476 5472 5465 5468 5466 5469 5471 5475 5474 5481 5481 5486 5491 5496 5501 5502 5504 5505 5506 5506 5512 5513 5514 5516 5515 5513 5514 5514 5511 5507 5501 5502 5508 5505 5505
5464 5468 5471 5482 5478 5475 5475 5473 5473 5467 5469 5466 5467 5472 5471 5471 5472 5475 5475 5480 5486 5495 5502 5516 5511 5503 5503 5505 5507 5508 5510 5514 5512 5509 5510 5511 5508 5503 5501 5499 5497 5503 5503 5510